Content
SEND FEEDBACK

Daily
Averages
Monthly
Summary
United States of America

FISKDALE, MASSACHUSETTS


Home > North America > United States > Massachusetts
Elevation: 770 feet     Latitude: 42 07N     Longitude: 072 08W

WEATHER
 
SELECT A DAY
Number of Records: 232,529;   Date Range: 1/1/95 - 7/7/14
 
SHARE

PRINT THIS DATA

[ ← Previous Day ]
WEATHER ALMANAC - JANUARY 31, 2013
[ Next Day → ]
[ °C ]   °F
Weather ElementAverageHighLow
Temperature46.3 °F57.9 °F (2:54 am)27 °F (11:54 pm)
Dewpoint39.3 °F57.2 °F (5:52 am)10.9 °F (10:54 pm)
Humidity78.2 %100 % (5:52 am)41 % (2:54 pm)
Barometer29.19 in29.58 in (11:54 pm)28.98 in (7:54 am)
Wind Speed24.2 mph38 mph (9:04 am)
Wind Gust55.2 mph (9:21 am)
Weather ElementAverage
Visibility6.9 mi
Wind DirectionWSW (239.8 °)

Weather ElementTotal
Precipitation2.33 in
Heating Degree Days22.6 (Base 65)
Averaged from 42 records on January 31, 2013
WEATHER CONDITIONS BREAKOUT
WIND DIRECTION BREAKOUT
WEATHER BY HOUR - JANUARY 31, 2013
[ °C ]   °F
Local TimeTemperatureDewpointHumidityBarometerVisibilityWind DirectionWind SpeedGust SpeedPrecipitationEventsConditions
12:34 AM57.0 °F55.0 °F93 %29.39 in5.0 miSSW (200°)28.8 mph43.7 mph0.00 inRainLight Rain
12:54 AM57.0 °F55.0 °F93 %29.38 in6.0 miSSW (200°)20.7 mph32.2 mph0.01 inRainLight Rain
1:54 AM57.0 °F55.0 °F93 %29.32 in5.0 miSouth (190°)24.2 mph36.8 mph0.06 inRainLight Rain
2:54 AM57.9 °F55.9 °F93 %29.24 in4.0 miSSW (200°)28.8 mph46.0 mph0.05 inRainLight Rain
3:54 AM57.9 °F55.9 °F93 %29.16 in6.0 miSouth (190°)21.9 mph34.5 mph0.07 inRainRain
4:54 AM57.9 °F55.9 °F93 %29.08 in3.0 miSouth (190°)28.8 mph48.3 mph0.12 inRainHeavy Rain
5:06 AM57.9 °F55.9 °F93 %29.07 in2.5 miSouth (190°)29.9 mph44.9 mph0.05 inRainHeavy Rain
5:18 AM57.9 °F57.0 °F97 %29.04 in3.0 miSouth (180°)29.9 mph42.6 mph0.12 inRainHeavy Rain
5:32 AM57.9 °F57.0 °F97 %29.02 in3.0 miSouth (180°)32.2 mph47.2 mph0.20 inRainHeavy Rain
5:41 AM57.9 °F57.0 °F97 %29.01 in2.5 miSouth (190°)31.1 mph50.6 mph0.26 inRainHeavy Rain
5:44 AM57.9 °F57.0 °F97 %29.01 in3.0 miSouth (190°)29.9 mph44.9 mph0.26 inRainHeavy Rain
5:52 AM57.2 °F57.2 °F100 %29.02 in4.0 miSSW (200°)23.0 mph42.6 mph0.29 inRainRain
5:54 AM57.9 °F57.0 °F97 %29.02 in4.0 miSSW (200°)34.5 mph49.5 mph0.31 inRainRain
6:21 AM57.9 °F57.0 °F97 %29.06 in8.0 miSSW (210°)28.8 mph42.6 mph0.06 inRainRain
6:39 AM57.0 °F53.1 °F87 %29.05 in6.0 miSW (220°)23.0 mph48.3 mph0.08 inRainRain
6:54 AM55.9 °F53.1 °F90 %29.04 in10.0 miSSW (210°)17.3 mph28.8 mph0.11 inRainLight Rain
7:52 AM55.4 °F51.8 °F88 %28.99 in10.0 miSSW (200°)23.0 mph32.2 mph0.00 inOvercast
7:54 AM55.0 °F51.1 °F86 %28.98 in10.0 miSSW (200°)25.3 mph36.8 mph0.00 inOvercast
8:54 AM54.0 °F50.0 °F86 %28.98 in10.0 miSW (220°)27.6 mph38.0 mphOvercast
9:04 AM51.1 °F46.9 °F86 %29.03 in2.5 miWNW (290°)38.0 mph48.3 mph0.00 inRainLight Rain
9:08 AM44.1 °F39.9 °F85 %29.04 in1.0 miWNW (290°)31.1 mph48.3 mph0.00 inRainHeavy Rain
9:21 AM41.0 °F37.0 °F86 %29.05 in2.0 miWest (280°)27.6 mph55.2 mph0.06 inRainRain
9:26 AM41.0 °F37.0 °F86 %29.07 in3.0 miWNW (290°)28.8 mph44.9 mph0.06 inRainLight Rain
9:40 AM39.0 °F36.0 °F89 %29.08 in3.0 miWest (270°)26.5 mph39.1 mph0.07 inRainRain
9:54 AM39.9 °F36.0 °F86 %29.08 in10.0 miWest (280°)21.9 mph32.2 mph0.09 inRainLight Rain
10:03 AM41.0 °F37.0 °F86 %29.08 in10.0 miWest (280°)16.1 mph31.1 mph0.00 inScattered Clouds
10:29 AM41.0 °F36.0 °F82 %29.12 in10.0 miWest (260°)16.1 mph33.4 mph0.00 inMostly Cloudy
10:54 AM42.1 °F36.0 °F79 %29.15 in10.0 miWest (270°)24.2 mph34.5 mph0.00 inOvercast
11:42 AM39.9 °F32.0 °F73 %29.18 in10.0 miWest (280°)24.2 mph33.4 mph0.00 inOvercast
11:54 AM39.9 °F30.0 °F68 %29.19 in10.0 miWest (270°)27.6 mph41.4 mph0.00 inMostly Cloudy
12:54 PM39.0 °F27.0 °F62 %29.21 in10.0 miWest (270°)23.0 mph39.1 mphMostly Cloudy
1:54 PM39.0 °F21.0 °F49 %29.24 in10.0 miWest (280°)24.2 mph36.8 mphScattered Clouds
2:54 PM39.0 °F17.1 °F41 %29.29 in10.0 miWest (270°)20.7 mph32.2 mphScattered Clouds
3:54 PM37.9 °F17.1 °F43 %29.33 in10.0 miWest (270°)12.7 mph34.5 mphOvercast
4:54 PM36.0 °F16.0 °F44 %29.37 in10.0 miWest (270°)16.1 mph28.8 mphMostly Cloudy
5:54 PM34.0 °F16.0 °F48 %29.42 in10.0 miWNW (290°)19.6 mph26.5 mphOvercast
6:54 PM32.0 °F15.1 °F50 %29.45 in10.0 miWest (270°)19.6 mph27.6 mphPartly Cloudy
7:54 PM32.0 °F12.9 °F45 %29.49 in10.0 miWest (270°)19.6 mph26.5 mphOvercast
8:54 PM28.9 °F18.0 °F64 %29.52 in6.0 miWest (260°)16.1 mph29.9 mph0.00 inSnowLight Snow
9:54 PM28.9 °F14.0 °F54 %29.55 in10.0 miWest (280°)25.3 mph34.5 mph0.00 inMostly Cloudy
10:54 PM28.0 °F10.9 °F49 %29.57 in10.0 miWest (260°)15.0 mph25.3 mph0.00 inScattered Clouds
11:54 PM27.0 °F14.0 °F58 %29.58 in9.0 miWest (260°)12.7 mph0.00 inSnowLight Snow
Hourly data recorded from KORH, located miles away from Fiskdale, Massachusetts







STORIES FROM OUR PARTNERS